Estación de Pullancon

Ultimos registro cada 15 minutos 28
Estación Fecha / Hora Temperatura Humedad Lluvia Velocidad Dirección Radiación Presion
28 Pullancon 10-05-2026 06:45 5,5 75 0 0 177 0 1012,3
27 Pullancon 10-05-2026 06:30 6,4 73 0 0 178 0 1012,3
26 Pullancon 10-05-2026 06:15 7,1 69 0 0 167 0 1012,1
25 Pullancon 10-05-2026 06:00 7,2 70 0 0 15 0 1011,8
24 Pullancon 10-05-2026 05:45 6,7 75 0 1,3 44 0 1011,7
23 Pullancon 10-05-2026 05:30 5,7 82 0 0,4 3 0 1011,8
22 Pullancon 10-05-2026 05:15 5,7 84 0 0,4 48 0 1011,9
21 Pullancon 10-05-2026 05:00 5,9 87 0 1,3 86 0 1012,1
20 Pullancon 10-05-2026 04:45 5,7 90 0 0 56 0 1012,2
19 Pullancon 10-05-2026 04:30 4,7 91 0 0 58 0 1012,2
18 Pullancon 10-05-2026 04:15 3,8 91 0 0 89 0 1012,3
17 Pullancon 10-05-2026 04:00 3,3 88 0 0 58 0 1012,5
16 Pullancon 10-05-2026 03:45 3,3 86 0 0 339 0 1012,5
15 Pullancon 10-05-2026 03:30 4,2 86 0 0 339 0 1012,4
14 Pullancon 10-05-2026 03:15 4,5 86 0 0 339 0 1012,4
13 Pullancon 10-05-2026 03:00 4,8 87 0 0 358 0 1012,3
12 Pullancon 10-05-2026 02:45 4,8 87 0 0 63 0 1012,5
11 Pullancon 10-05-2026 02:30 5,3 82 0 0 16 0 1012,6
10 Pullancon 10-05-2026 02:15 6,1 83 0 0 319 0 1012,8
9 Pullancon 10-05-2026 02:00 6,4 83 0 0 320 0 1012,8
8 Pullancon 10-05-2026 01:45 6,7 82 0 0 272 0 1012,8
7 Pullancon 10-05-2026 01:30 7,8 78 0 0 246 0 1012,7
6 Pullancon 10-05-2026 01:15 8,8 77 0 0 246 0 1012,7
5 Pullancon 10-05-2026 01:00 8,8 79 0 1,3 318 0 1012,8
4 Pullancon 10-05-2026 00:45 9,7 76 0 0 4 0 1013
3 Pullancon 10-05-2026 00:30 9,8 79 0 0 352 0 1013
2 Pullancon 10-05-2026 00:15 9,4 79 0 1,8 344 0 1013,1
1 Pullancon 10-05-2026 00:00 9,8 81 0 0,4 346 0 1013,4